Location: Aiyekoto
(8.4333°N, 4.3667°E)
Time: 02:43:51
(UTC+00:00)

ADEOS - Pass Details

Date: 08 October 2020
Orbit: 792 x 795 km, 98.9° (Epoch: 20 October)

Event Time Altitude Azimuth Distance (km) Brightness Sun altitude
Rises 02:48:32 0° 43° (NE) 3,281 7.2 -40.7°
Reaches altitude 10° 02:51:47 10° 65° (ENE) 2,353 6.6 -39.9°
Maximum altitude 02:54:50 16° 101° (E) 1,980 6.2 -39.2°
Drops below altitude 10° 02:57:53 10° 137° (SE) 2,356 6.4 -38.4°
Sets 03:01:07 0° 159° (SSE) 3,286 7.0 -37.6°
